Location: Abraham Lincoln Continuation High School
(33.9711°N, 117.3662°W)
Time: 14:22:14
(UTC+00:00)

Cosmos 1535 Rocket - Pass Details

Date: 21 September 2020
Orbit: 949 x 1003 km, 83.0° (Epoch: 28 October)

Event Time Altitude Azimuth Distance (km) Brightness Sun altitude
Rises 11:17:40 0° 351° (N) 3,730 7.7 -29.0°
Reaches altitude 10° 11:20:12 10° 350° (N) 2,779 7.0 -28.6°
Maximum altitude 11:26:35 75° 267° (W) 1,037 4.4 -27.3°
Enters shadow 11:27:41 61° 205° (SSW) 1,129 4.5 -27.1°
